[[{"header":{"parameterUnit":"m.s-1","parameterCategory":1,"la1":30.2992,"la2":30.254,"lo1":-89.0895,"lo2":-89.0443,"dy":0.0025,"dx":0.0025,"nx":19,"ny":19,"refTime":"2026-04-02T03:00:00:Z","depth":0,"parameterNumber":2,"parameterNumberName":"U-component_of_WINDS"},"data":[0,0,0,-4.372,-4.3723,-4.3888,-4.3889,-4.4097,-4.4099,0,0,0,0,0,0,0,0,0,0,0,-4.367,-4.3671,-4.3719,-4.3723,-4.3888,-4.3889,-4.4097,-4.4099,0,0,0,0,0,0,0,0,0,0,0,-4.3669,-4.3671,-4.3673,-4.3724,-4.3888,-4.3889,-4.4096,-4.3973,0,0,0,0,0,0,0,0,0,0,-4.3813,-4.3766,-4.367,-4.3673,-4.3725,-4.3888,-4.3889,-4.3967,-4.398,-4.4022,0,-4.4058,0,-4.4082,-4.4113,-4.4113,0,0,0,-4.3724,-4.3755,-4.38,-4.3673,-4.3727,-4.3887,-4.3814,-4.3974,-4.399,-4.404,-4.4061,-4.4069,-4.4085,-4.4114,-4.4115,-4.4351,-4.4352,0,0,-4.3715,-4.3699,-4.379,-4.381,-4.3785,-4.3809,-4.3819,-4.3984,-4.4006,-4.4062,-4.4074,-4.4089,-4.4115,-4.4117,-4.435,-4.4352,0,0,0,-4.3688,-4.3692,-4.3734,-4.3802,-4.3831,-4.3813,-4.3825,-4.3999,-4.4014,-4.4076,-4.4091,-4.4117,-4.4119,-4.4349,-4.4351,-4.4387,0,0,0,-4.3683,-4.3677,-4.373,-4.3721,-4.3828,-4.3917,-4.3837,-4.4002,-4.4021,-4.409,-4.4117,-4.4121,-4.4348,-4.435,-4.4383,-4.4406,0,0,0,-4.3659,-4.3674,-4.3698,-4.372,-4.3791,-4.3915,-4.3939,-4.4007,-4.4031,-4.4114,-4.4122,-4.4347,-4.435,-4.438,-4.4401,-4.4462,0,0,0,-4.3629,-4.3728,-4.3698,-4.3814,-4.3789,-4.3937,-4.3939,-4.4049,-4.4125,-4.4118,-4.4348,-4.4351,-4.4379,-4.4398,-4.4459,-4.4509,-4.4529,0,0,-4.3744,-4.3741,-4.3811,-4.3789,-4.3938,-4.3913,-4.4067,-4.4152,-4.4175,-4.4291,-4.4297,-4.4385,-4.44,-4.4461,-4.4651,-4.4667,0,0,0,-4.3842,-4.3891,-4.3934,-4.4006,-4.4073,-4.4133,-4.4196,-4.4227,-4.4327,-4.4231,-4.4425,-4.4435,-4.4471,-4.4496,-4.4509,-4.4541,-4.4362,-4.4362,-4.4361,-4.3979,-4.4004,-4.412,-4.4165,-4.4234,-4.4299,-4.4357,-4.441,-4.4415,-4.446,-4.4494,-4.4606,-4.4635,-4.4645,-4.4677,-4.4525,-4.4525,-4.4525,-4.4525,-4.4149,-4.4222,-4.4226,-4.434,-4.4366,-4.4462,-4.4528,-4.4528,-4.4621,-4.4583,-4.4616,-4.457,-4.4661,-4.4691,-4.4528,-4.4527,-4.4527,-4.4527,-4.4527,-4.4239,-4.4279,-4.4316,-4.4422,-4.4501,-4.4544,-4.4632,-4.4653,-4.4673,-4.4706,-4.4743,-4.4742,-4.4742,-4.4723,-4.4723,-4.4723,-4.4724,-4.4724,-4.4724,-4.4318,-4.4359,-4.4431,-4.4512,-4.4561,-4.4627,-4.4694,-4.4743,-4.4801,-4.4809,-4.4809,-4.4808,-4.4667,-4.4629,-4.473,-4.4729,-4.4728,-4.4728,-4.4728,-4.4476,-4.4444,-4.4555,-4.4604,-4.47,-4.4777,-4.4803,-4.49,-4.4943,-4.4986,-4.4979,-4.4872,-4.487,-4.4859,-4.4828,-4.4974,-4.4974,-4.4974,-4.4974,-4.4551,-4.4553,-4.4671,-4.4747,-4.4825,-4.486,-4.4985,-4.5038,-4.5088,-4.5116,-4.5099,-4.506,-4.5049,-4.5053,-4.5038,-4.5009,-4.5199,-4.5199,-4.5199,-4.4648,-4.4659,-4.476,-4.4809,-4.4886,-4.4952,-4.507,-4.5157,-4.5207,-4.5209,-4.5138,-4.5128,-4.5067,-4.5046,-4.5043,-4.5019,-4.4967,0,0]},{"header":{"parameterUnit":"m.s-1","parameterCategory":1,"la1":30.2992,"la2":30.254,"lo1":-89.0895,"lo2":-89.0443,"dy":0.0025,"dx":0.0025,"nx":19,"ny":19,"refTime":"2026-04-02T03:00:00:Z","depth":0,"parameterNumber":3,"parameterNumberName":"V-component_of_WINDS"},"data":[0,0,0,4.7625,4.7628,4.7764,4.7764,4.7936,4.7938,0,0,0,0,0,0,0,0,0,0,0,4.7587,4.7588,4.7625,4.7629,4.7764,4.7764,4.7936,4.7938,0,0,0,0,0,0,0,0,0,0,0,4.7586,4.7587,4.7589,4.7629,4.7763,4.7764,4.7936,4.7833,0,0,0,0,0,0,0,0,0,0,4.7702,4.7668,4.7587,4.7589,4.763,4.7763,4.7764,4.7828,4.784,4.7875,0,4.7909,0,4.7927,4.795,4.795,0,0,0,4.7627,4.7659,4.7694,4.7589,4.7631,4.7763,4.7702,4.7835,4.7848,4.789,4.7912,4.7918,4.7929,4.7951,4.7952,4.8169,4.817,0,0,4.7619,4.7611,4.7685,4.7703,4.7684,4.7698,4.7706,4.7843,4.7864,4.7912,4.7922,4.7932,4.7952,4.7953,4.8168,4.8169,0,0,0,4.7599,4.7606,4.7638,4.7696,4.772,4.7702,4.7712,4.7858,4.7869,4.7924,4.7934,4.7953,4.7955,4.8166,4.8168,4.8216,0,0,0,4.7594,4.7594,4.7635,4.7631,4.7718,4.7791,4.7724,4.786,4.7876,4.7933,4.7953,4.7957,4.8165,4.8167,4.8212,4.8239,0,0,0,4.7577,4.7592,4.7612,4.763,4.7689,4.7789,4.7808,4.7864,4.7882,4.795,4.7957,4.8164,4.8167,4.8209,4.8234,4.8295,0,0,0,4.7556,4.765,4.7613,4.7723,4.7687,4.7818,4.7808,4.7905,4.7969,4.7954,4.8165,4.8168,4.8207,4.823,4.8292,4.8346,4.8368,0,0,4.767,4.7664,4.7729,4.77,4.7836,4.7798,4.7941,4.8006,4.8018,4.8117,4.8123,4.8213,4.8233,4.8295,4.8493,4.8511,0,0,0,4.7763,4.781,4.7848,4.791,4.7964,4.8013,4.8057,4.8082,4.8167,4.8068,4.8252,4.8264,4.83,4.8327,4.8342,4.8374,4.818,4.8179,4.8179,4.7912,4.7926,4.8036,4.8067,4.8127,4.8174,4.8224,4.8265,4.8258,4.8302,4.8331,4.845,4.8481,4.8492,4.8526,4.8361,4.8361,4.8361,4.8361,4.8082,4.8151,4.8145,4.8249,4.8262,4.8349,4.8398,4.8391,4.8473,4.8429,4.8461,4.8412,4.8511,4.8541,4.8365,4.8364,4.8364,4.8363,4.8363,4.8182,4.8218,4.8248,4.8341,4.8411,4.8438,4.8519,4.8528,4.8536,4.8568,4.8601,4.8601,4.8601,4.8584,4.8584,4.8584,4.8585,4.8585,4.8585,4.8274,4.8307,4.8375,4.8442,4.8485,4.8541,4.8591,4.8632,4.868,4.8679,4.868,4.867,4.8519,4.8481,4.8592,4.8591,4.859,4.8589,4.8589,4.8442,4.8406,4.8511,4.8554,4.8635,4.8705,4.8716,4.8799,4.8835,4.8874,4.8858,4.8745,4.8738,4.8726,4.8695,4.8855,4.8855,4.8855,4.8855,4.8527,4.8525,4.8636,4.8704,4.8772,4.8793,4.8911,4.8951,4.8985,4.9008,4.8986,4.8945,4.8933,4.8933,4.8917,4.8888,4.9094,4.9094,4.9094,4.8631,4.8637,4.8736,4.8773,4.8837,4.8892,4.9003,4.9081,4.9112,4.9104,4.9026,4.9016,4.895,4.8928,4.8917,4.8892,4.8839,0,0]}]]